星链-33806 (STARLINK-33806)

导读

STARLINK-33806是美国SpaceX公司星链星座中的一颗低轨互联网卫星,于2025年4月28日发射入轨。作为星链全球卫星互联网组网计划的组成部分,它将和数千颗同系列卫星协同,为全球偏远地区、网络基础设施薄弱区域提供低时延、高速的宽带互联网接入服务,助力星链完成覆盖全球的卫星通信网络构建,推动卫星互联网商业化应用落地。

Basic Information
目录编号:
63723
目录名称:
STARLINK-33806
国际标识:
2025-087AC
轨道中心:
EARTH
卫星名称:
星链-33806
卫星全名:
星链-33806 (STARLINK-33806)
卫星状态:
在轨 (已飞行412 天)
发射日期:
2025-04-28 UTC
国别 :
美国 (US)
星等 :
--
Orbit Information
数据来源 国际轨道数据 AOE轨道数据
星历时间 2026-06-13T12:50:01+0800
1天前
查看轨道信息
2026-06-08T23:00:00+0800
5天前
查看轨道信息
半长轴 6853.286km 6853.414km
偏心率 0.0001277 0.0001467
轨道倾角 53.157° 53.154°
近地点辐角 95.243° 62.074°
升交点赤经 135.856° 157.116°
平近点角 264.872° 273.953°
近地点 474.273km 474.271km
远地点 476.025km 476.283km
周期 94.104分钟 94.107分钟
每日圈数 15.302223 15.301795
Detailed Information
固有亮度:
5
最大亮度:
2.5
卫星平台:
Starlink V1.0
覆盖范围:
全球
运营商:
太空探索技术公司
运营商所在国:
美国
制造商(研发单位):
太空探索技术公司
制造商所在国:
美国
使用方式:
暂无
Satellite Introduction
Starlink 计划是 SpaceX 推出的全球卫星互联网项目,通过发射低轨道卫星,为全球尤其是偏远地区提供高速、低延迟的互联网服务。自 2019 年起,Starlink 已部署数千颗卫星,旨在缩小全球数字鸿沟,推动互联网普及。该项目还为军事、航空等行业提供通信支持,带来广泛经济效益。
2D Orbit Map
3D Orbit Map
Orbit Altitude Analysis Chart
Orbit Inclination Analysis Chart
Orbit Comprehensive Analysis Chart
View Comprehensive Chart